sat.trackr.live / text

‹ back to catalog

STARLINK-32202

NORAD 60595 · 2024-150N

PAYLOAD ACTIVE UNKNOWN

§ Identity

Operator
Country
US
Launch date
2024-08-20
Launch site
AFETR
Launch vehicle
Mass (kg)
RCS (m²)

Purposes: comms

External: N2YO · Heavens-Above · Gunter

§ Orbital elements

Epoch: 2026-09-21T21:13:21.587232Z

Period
94.01 min
Inclination
53.1593°
Eccentricity
0.0001201
Mean motion
15.31690521 rev/d
Perigee alt
469.9 km
Apogee alt
471.6 km
Semi-major
6,848.9 km
B*
-6.6923e-5
RAAN
114.7287°
Arg perigee
84.8210°
Mean anomaly
275.2928°
Rev number
11,809

§ Raw data

STARLINK-322021 60595U 24150N   26264.88427763 -.00002440  00000+0 -66923-4 0  99932 60595  53.1593 114.7287 0001201  84.8210 275.2928 15.31690521118097

JSON: /api/v1/satellites/60595 · /tle

For live sub-satellite position, see the globe view (requires WebGL).

§ Visibility from observer

Set your observer location to see the next 7 days of passes ≥ 10°. The values pass through the URL so the page stays shareable.

No JS? Fill the form by hand. The geolocation button needs JavaScript.